{"data":{"norad_id":55674,"intl_designator":"2023-021AY","name":"STARLINK-5462","alt_names":[],"object_type":"PAYLOAD","status":"ACTIVE","operator":null,"country":"US","launch_date":"2023-02-17","launch_site_code":"AFWTR","launch_vehicle":null,"mission":null,"orbit_class":"UNKNOWN","rcs_meters":null,"size_class":null,"mass_kg":null,"dimensions":null,"purposes":["comms"],"wikipedia_slug":null,"has_3d_model":false,"image_url":null,"decayed_at":null,"tle_current":{"epoch":"2026-05-24T21:36:14.904000Z","epoch_age_seconds":80921,"freshness":"FRESH","line1":"1 55674U 23021AY  26144.90017250  .00002338  00000+0  20363-3 0  9998","line2":"2 55674  70.0011 332.1590 0002730 268.8877  91.1969 14.98335606180705","mean_motion":14.98335606,"eccentricity":0.000273,"inclination_deg":70.0011,"raan_deg":332.159,"arg_perigee_deg":268.8877,"mean_anomaly_deg":91.1969,"bstar":0.00020363,"rev_number":18070,"period_min":96.10663954281,"perigee_km":570.14115697942,"apogee_km":573.9359528324,"semimajor_km":6950.1755549059,"source":"CELESTRAK","updated_at":"2026-05-25T13:38:17.876800Z"}}}